Terminal Aerodrome Forecast
Issued by NWS Aberdeen, SD

Home | Current Version | Previous Version | Text Only | Print | Product List | Glossary On
Versions: 1 2 3 4 5 6 7 8 9 10 11 12 13 14 15 16 17 18 19 20 21 22 23 24 25 26 27 28 29 30 31 32 33 34 35 36 37 38 39 40 41 42 43 44 45 46 47 48 49 50
177
FTUS43 KABR 302340
TAFABR
TAF
KABR 302340Z 3100/3124 17011KT P6SM SCT090 BKN200
     FM310300 20011KT P6SM -SHRA VCTS BKN080CB
      TEMPO 3103/3104 VRB30G40KT 2SM +TSRA BKN015CB
     FM310600 25009KT P6SM SCT100
     FM311600 25013KT P6SM SCT250=

USA.gov is the U.S. government's official web portal to all federal, state and local government web resources and services.